Home > Weather > Vallejo > Past weeks

Flag for U.S.A. Weather for the Past 2 Weeks in Vallejo, California, U.S.A.

Now
48 °F

Clear.


Feels Like: 44 °F
Forecast: 48 / 68 °F
Wind: 8 mph from North

Location: Napa County Airport

Current Time: Feb 10, 2016 at 1:22:47 AM

Latest Report: Feb 10, 2016 at 12:54 AM


Visibility: 10 mi

Pressure: 30.18 "Hg

Humidity: 89%

Dew point: 45 °F

Location of VallejoLocation

Historic Weather in Vallejo — Graph

°F

Vallejo Temperature Yesterday

Maximum temperature yesterday: 71 °F (at 1:54 PM)
Minimum temperature yesterday: 47 °F (at 10:54 PM)
Average temperature yesterday: 57 °F

High & Low Weather Summary for the Past Weeks

 TemperatureHumidityPressure
High122 °F (Jan 31, 4:54 PM)100% (Jan 26, 1:54 AM)30.45 "Hg (Jan 26, 1:54 AM)
Low35 °F (Feb 6, 6:54 AM)4% (Jan 31, 4:54 PM)29.72 "Hg (Jan 31, 2:54 PM)
Average53 °F77%30.21 "Hg
* Reported Jan 25 11:54 PM — Feb 9 11:54 PM, Vallejo, Weather by CustomWeather, © 2016

Note: Actual official high and low records may vary slightly from our data, if they occured in-between our weather recording intervals... More about our weather records

Advertising

Vallejo Weather History for the Previous 24 Hours

 ConditionsComfort  
Time TempWeatherWind HumidityBarometerVisibility
11:54 PM
Tue, Feb 9
47 °FClear.5 mph93%30.18 "Hg10 mi
10:54 PM47 °FFog.No wind97%30.18 "Hg6 mi
9:54 PM60 °FClear.5 mph69%30.15 "Hg10 mi
8:54 PM54 °FClear.5 mph83%30.15 "Hg10 mi
7:54 PM56 °FClear.5 mph77%30.14 "Hg10 mi
6:54 PM56 °FClear.6 mph84%30.14 "Hg10 mi
5:54 PM61 °FClear.3 mph75%30.14 "Hg10 mi
4:54 PM62 °FSunny.8 mph75%30.13 "Hg10 mi
3:54 PM69 °FSunny.8 mph53%30.11 "Hg10 mi
2:54 PM71 °FSunny.9 mph42%30.12 "Hg10 mi
1:54 PM71 °FSunny.10 mph45%30.13 "Hg10 mi
12:54 PM70 °FSunny.21 mph49%30.10 "Hg10 mi
11:54 AM66 °FSunny.15 mph59%30.16 "Hg10 mi
10:54 AM63 °FSunny.16 mph65%30.20 "Hg10 mi
9:54 AM62 °FSunny.13 mph62%30.22 "Hg10 mi
8:54 AM58 °FSunny.9 mph67%30.21 "Hg10 mi
7:54 AM54 °FSunny.12 mph72%30.19 "Hg10 mi
6:54 AM51 °FClear.7 mph77%30.19 "Hg10 mi
5:54 AM55 °FClear.5 mph69%30.17 "Hg10 mi
4:54 AM48 °FClear.5 mph80%30.16 "Hg10 mi
3:54 AM48 °FClear.7 mph86%30.17 "Hg10 mi
2:54 AM49 °FClear.No wind80%30.16 "Hg10 mi
1:54 AM48 °FClear.No wind86%30.16 "Hg10 mi
Weather by CustomWeather, © 2016

See weather overviewHow to use our weather pages